{"data":{"norad_id":52626,"epoch":"2026-05-25T02:41:58.831008Z","epoch_age_seconds":65602,"freshness":"FRESH","line1":"1 52626U 22052AE  26145.11248647  .00000943  00000+0  77302-4 0  9991","line2":"2 52626  53.2135 286.0414 0001234  84.6506 275.4627 15.08841150222525","mean_motion":15.0884115,"eccentricity":0.0001234,"inclination_deg":53.2135,"raan_deg":286.0414,"arg_perigee_deg":84.6506,"mean_anomaly_deg":275.4627,"bstar":7.7302e-5,"rev_number":22252,"period_min":95.437481937711,"perigee_km":538.88620787016,"apogee_km":540.59353988264,"semimajor_km":6917.8768738764,"source":"CELESTRAK","updated_at":"2026-05-25T13:38:17.202753Z"}}